Home > Weather > Paradise > Past weeks

Flag for USA Past Weather in Paradise, Nevada, USA — Yesterday and Last 2 Weeks

Now
68 °F

Scattered clouds.


Feels Like: 68 °F
Forecast: 61 / 87 °F
Wind: No wind

Location: McCarran International Airport

Current Time: May 27, 2016 at 7:25:35 AM

Latest Report: May 27, 2016 at 6:56 AM


Visibility: 10 mi

Pressure: 29.80 "Hg (27.65 "Hg at 643m altitude)

Humidity: 30%

Dew Point: 35 °F

Location of ParadiseLocation

Past Weather in Paradise — Graph

°F

Paradise Temperature Yesterday

Maximum temperature yesterday: 83 °F (at 3:56 PM)
Minimum temperature yesterday: 62 °F (at 2:56 AM)
Average temperature yesterday: 74 °F

High & Low Weather Summary for the Past Weeks

 TemperatureHumidityPressure
High98 °F (May 13, 3:56 PM)47% (May 18, 2:56 AM)30.04 "Hg (May 18, 2:56 AM)
Low59 °F (May 21, 5:56 AM)6% (May 15, 6:56 PM)29.44 "Hg (May 19, 7:56 PM)
Average76 °F20%29.73 "Hg
* Reported May 12 5:56 AM — May 27 5:56 AM, Paradise, Weather by CustomWeather, © 2016

Note: Actual official high and low records may vary slightly from our data, if they occured in-between our weather recording intervals... More about our weather records

Advertising

Paradise Weather History for the Previous 24 Hours

Scroll right to see more
 ConditionsComfort  
Time TempWeatherWind HumidityBarometerVisibility
5:56 AM
Fri, May 27
69 °FPassing clouds.No wind30%29.78 "Hg10 mi
4:56 AM70 °FPassing clouds.No wind29%29.76 "Hg10 mi
3:56 AM71 °FPassing clouds.3 mph28%29.75 "Hg10 mi
2:56 AM71 °FPassing clouds.No wind26%29.74 "Hg10 mi
1:56 AM72 °FPassing clouds.3 mph23%29.75 "Hg10 mi
12:56 AM73 °FPassing clouds.6 mph21%29.75 "Hg10 mi
11:56 PM
Thu, May 26
74 °FPassing clouds.7 mph21%29.75 "Hg10 mi
10:56 PM78 °FPassing clouds.6 mph18%29.75 "Hg10 mi
9:56 PM78 °FPassing clouds.8 mph17%29.76 "Hg10 mi
8:56 PM80 °FPassing clouds.7 mph17%29.75 "Hg10 mi
7:56 PM81 °FPassing clouds.5 mph16%29.74 "Hg10 mi
6:56 PM83 °FPassing clouds.10 mph15%29.73 "Hg10 mi
5:56 PM82 °FPassing clouds.5 mph16%29.74 "Hg10 mi
4:56 PM82 °FPassing clouds.8 mph16%29.75 "Hg10 mi
3:56 PM83 °FPassing clouds.13 mph15%29.77 "Hg10 mi
2:56 PM82 °FScattered clouds.10 mph14%29.79 "Hg10 mi
1:56 PM81 °FScattered clouds.10 mph16%29.81 "Hg10 mi
12:56 PM81 °FScattered clouds.9 mph13%29.82 "Hg10 mi
11:56 AM78 °FScattered clouds.7 mph19%29.84 "Hg10 mi
10:56 AM76 °FPassing clouds.No wind23%29.85 "Hg10 mi
9:56 AM73 °FPassing clouds.3 mph25%29.85 "Hg10 mi
8:56 AM70 °FPassing clouds.No wind28%29.86 "Hg10 mi
7:56 AM68 °FPassing clouds.6 mph33%29.86 "Hg10 mi
Weather by CustomWeather, © 2016

See weather overviewHow to use our weather pages